Retour au catalogue

TRANSIT 5B-1 DEB

ActifPO
NORAD 3166·DEBRIS·🇺🇸 United States

Lancé Sep 28, 1963 depuis Vandenberg Space Force Base

Loading…

Prochains Passages (prochaines 24 heures)

TLE

FraisSource: Space-Track

Époque: Sep 14, 2026, 23:10 UTC

1 03166U 63038H   26257.96574437  .00000068  00000-0  97956-4 0  9997
2 03166  89.9672 332.6887 0043346 117.5951  65.1262 13.44984293603654

Suivez TRANSIT 5B-1 DEB en temps réel avec AllMySat

Download on the App Store